STATION	Long[degrees_east]	Lat[degrees_north]	DEPTH[m]	time_ISO8601[ISO8601]	TEMP[deg]	PSAL[PSU]
S1	13.9484	76.4381	1007	2017-07-23 13:01:03	-0.8279	34.9069
S1	13.9484	76.4381	1007	2017-07-23 14:01:03	-0.8299	34.9068
S1	13.9484	76.4381	1007	2017-07-23 15:01:04	-0.8304	34.9068
S1	13.9484	76.4381	1007	2017-07-23 16:01:03	-0.8307	34.9067
S1	13.9484	76.4381	1007	2017-07-23 17:01:03	-0.8298	34.9067
S1	13.9484	76.4381	1007	2017-07-23 18:01:04	-0.8284	34.9067
S1	13.9484	76.4381	1007	2017-07-23 19:01:03	-0.8269	34.9066
S1	13.9484	76.4381	1007	2017-07-23 20:01:03	-0.8044	34.9066
S1	13.9484	76.4381	1007	2017-07-23 21:01:04	-0.7853	34.9065
S1	13.9484	76.4381	1007	2017-07-23 22:01:03	-0.7796	34.9065
S1	13.9484	76.4381	1007	2017-07-23 23:01:03	-0.7932	34.9065
S1	13.9484	76.4381	1007	2017-07-24 00:01:04	-0.7806	34.9064
S1	13.9484	76.4381	1007	2017-07-24 01:01:03	-0.7555	34.9062
S1	13.9484	76.4381	1007	2017-07-24 02:01:03	-0.7343	34.9064
S1	13.9484	76.4381	1007	2017-07-24 03:01:04	-0.7542	34.9062
S1	13.9484	76.4381	1007	2017-07-24 04:01:03	-0.7842	34.9063
S1	13.9484	76.4381	1007	2017-07-24 05:01:03	-0.7934	34.9065
S1	13.9484	76.4381	1007	2017-07-24 06:01:04	-0.7922	34.9062
S1	13.9484	76.4381	1007	2017-07-24 07:01:03	-0.7883	34.9061
S1	13.9484	76.4381	1007	2017-07-24 08:01:03	-0.8127	34.9062
S1	13.9484	76.4381	1007	2017-07-24 09:01:04	-0.8268	34.9064
S1	13.9484	76.4381	1007	2017-07-24 10:01:03	-0.8301	34.9063
S1	13.9484	76.4381	1007	2017-07-24 11:01:03	-0.8293	34.907
S1	13.9484	76.4381	1007	2017-07-24 12:01:04	-0.8281	34.9068
S1	13.9484	76.4381	1007	2017-07-24 13:01:03	-0.8249	34.9068
S1	13.9484	76.4381	1007	2017-07-24 14:01:03	-0.8199	34.9066
S1	13.9484	76.4381	1007	2017-07-24 15:01:04	-0.798	34.9063
S1	13.9484	76.4381	1007	2017-07-24 16:01:03	-0.7831	34.9064
S1	13.9484	76.4381	1007	2017-07-24 17:01:03	-0.7873	34.9062
S1	13.9484	76.4381	1007	2017-07-24 18:01:04	-0.7837	34.9062
S1	13.9484	76.4381	1007	2017-07-24 19:01:03	-0.7699	34.9063
S1	13.9484	76.4381	1007	2017-07-24 20:01:03	-0.7593	34.9067
S1	13.9484	76.4381	1007	2017-07-24 21:01:04	-0.752	34.9065
S1	13.9484	76.4381	1007	2017-07-24 22:01:03	-0.7349	34.9063
S1	13.9484	76.4381	1007	2017-07-24 23:01:03	-0.7618	34.9064
S1	13.9484	76.4381	1007	2017-07-25 00:01:04	-0.7946	34.9066
S1	13.9484	76.4381	1007	2017-07-25 01:01:03	-0.7932	34.9066
S1	13.9484	76.4381	1007	2017-07-25 02:01:03	-0.7938	34.9065
S1	13.9484	76.4381	1007	2017-07-25 03:01:04	-0.7929	34.9063
S1	13.9484	76.4381	1007	2017-07-25 04:01:03	-0.7999	34.9064
S1	13.9484	76.4381	1007	2017-07-25 05:01:03	-0.8109	34.9064
S1	13.9484	76.4381	1007	2017-07-25 06:01:04	-0.819	34.9064
S1	13.9484	76.4381	1007	2017-07-25 07:01:03	-0.8245	34.9067
S1	13.9484	76.4381	1007	2017-07-25 08:01:03	-0.8251	34.9066
S1	13.9484	76.4381	1007	2017-07-25 09:01:04	-0.8268	34.9063
S1	13.9484	76.4381	1007	2017-07-25 10:01:03	-0.8274	34.9061
S1	13.9484	76.4381	1007	2017-07-25 11:01:03	-0.8275	34.9062
S1	13.9484	76.4381	1007	2017-07-25 12:01:04	-0.8277	34.9066
S1	13.9484	76.4381	1007	2017-07-25 13:01:03	-0.8273	34.9066
S1	13.9484	76.4381	1007	2017-07-25 14:01:03	-0.8267	34.9063
S1	13.9484	76.4381	1007	2017-07-25 15:01:04	-0.8262	34.9061
S1	13.9484	76.4381	1007	2017-07-25 16:01:03	-0.8271	34.9065
S1	13.9484	76.4381	1007	2017-07-25 17:01:03	-0.8259	34.9064
S1	13.9484	76.4381	1007	2017-07-25 18:01:04	-0.8267	34.9062
S1	13.9484	76.4381	1007	2017-07-25 19:01:03	-0.8274	34.9063
S1	13.9484	76.4381	1007	2017-07-25 20:01:03	-0.8288	34.9065
S1	13.9484	76.4381	1007	2017-07-25 21:01:04	-0.8287	34.9063
S1	13.9484	76.4381	1007	2017-07-25 22:01:03	-0.8282	34.9066
S1	13.9484	76.4381	1007	2017-07-25 23:01:03	-0.8278	34.9064
S1	13.9484	76.4381	1007	2017-07-26 00:01:04	-0.8266	34.9063
S1	13.9484	76.4381	1007	2017-07-26 01:01:03	-0.8248	34.9062
S1	13.9484	76.4381	1007	2017-07-26 02:01:03	-0.7945	34.9062
S1	13.9484	76.4381	1007	2017-07-26 03:01:04	-0.7648	34.9062
S1	13.9484	76.4381	1007	2017-07-26 04:01:03	-0.7584	34.9063
S1	13.9484	76.4381	1007	2017-07-26 05:01:03	-0.7618	34.9062
S1	13.9484	76.4381	1007	2017-07-26 06:01:04	-0.7707	34.9066
S1	13.9484	76.4381	1007	2017-07-26 07:01:03	-0.8069	34.9065
S1	13.9484	76.4381	1007	2017-07-26 08:01:03	-0.8229	34.9065
S1	13.9484	76.4381	1007	2017-07-26 09:01:04	-0.8265	34.9065
S1	13.9484	76.4381	1007	2017-07-26 10:01:03	-0.8275	34.9064
S1	13.9484	76.4381	1007	2017-07-26 11:01:03	-0.8289	34.9066
S1	13.9484	76.4381	1007	2017-07-26 12:01:04	-0.8304	34.9066
S1	13.9484	76.4381	1007	2017-07-26 13:01:03	-0.8281	34.9057
S1	13.9484	76.4381	1007	2017-07-26 14:01:03	-0.826	34.9064
S1	13.9484	76.4381	1007	2017-07-26 15:01:04	-0.8261	34.9063
S1	13.9484	76.4381	1007	2017-07-26 16:01:03	-0.8266	34.9062
S1	13.9484	76.4381	1007	2017-07-26 17:01:03	-0.8053	34.9065
S1	13.9484	76.4381	1007	2017-07-26 18:01:04	-0.7407	34.9066
S1	13.9484	76.4381	1007	2017-07-26 19:01:03	-0.7069	34.9064
S1	13.9484	76.4381	1007	2017-07-26 20:01:03	-0.705	34.9066
S1	13.9484	76.4381	1007	2017-07-26 21:01:04	-0.6565	34.9062
S1	13.9484	76.4381	1007	2017-07-26 22:01:03	-0.6087	34.9067
S1	13.9484	76.4381	1007	2017-07-26 23:01:02	-0.5841	34.9064
S1	13.9484	76.4381	1007	2017-07-27 00:01:02	-0.5923	34.9063
S1	13.9484	76.4381	1007	2017-07-27 01:01:03	-0.6095	34.9068
S1	13.9484	76.4381	1007	2017-07-27 02:01:02	-0.6443	34.9064
S1	13.9484	76.4381	1007	2017-07-27 03:01:02	-0.6638	34.9061
S1	13.9484	76.4381	1007	2017-07-27 04:01:03	-0.6695	34.9063
S1	13.9484	76.4381	1007	2017-07-27 05:01:02	-0.6763	34.9066
S1	13.9484	76.4381	1007	2017-07-27 06:01:02	-0.6995	34.9062
S1	13.9484	76.4381	1007	2017-07-27 07:01:03	-0.7417	34.9073
S1	13.9484	76.4381	1007	2017-07-27 08:01:03	-0.7586	34.9075
S1	13.9484	76.4381	1007	2017-07-27 09:01:04	-0.7676	34.9077
S1	13.9484	76.4381	1007	2017-07-27 10:01:03	-0.7677	34.9075
S1	13.9484	76.4381	1007	2017-07-27 11:01:03	-0.7736	34.9076
S1	13.9484	76.4381	1007	2017-07-27 12:01:04	-0.7771	34.9069
S1	13.9484	76.4381	1007	2017-07-27 13:01:03	-0.7816	34.9067
S1	13.9484	76.4381	1007	2017-07-27 14:01:03	-0.7766	34.9065
S1	13.9484	76.4381	1007	2017-07-27 15:01:04	-0.7764	34.9068
S1	13.9484	76.4381	1007	2017-07-27 16:01:03	-0.7755	34.9067
S1	13.9484	76.4381	1007	2017-07-27 17:01:03	-0.7675	34.9061
S1	13.9484	76.4381	1007	2017-07-27 18:01:04	-0.7627	34.9062
S1	13.9484	76.4381	1007	2017-07-27 19:01:03	-0.7736	34.9064
S1	13.9484	76.4381	1007	2017-07-27 20:01:03	-0.7788	34.9065
S1	13.9484	76.4381	1007	2017-07-27 21:01:04	-0.7792	34.9062
S1	13.9484	76.4381	1007	2017-07-27 22:01:03	-0.7767	34.9064
S1	13.9484	76.4381	1007	2017-07-27 23:01:03	-0.7764	34.9063
S1	13.9484	76.4381	1007	2017-07-28 00:01:04	-0.7736	34.9066
S1	13.9484	76.4381	1007	2017-07-28 01:01:03	-0.7327	34.9065
S1	13.9484	76.4381	1007	2017-07-28 02:01:03	-0.7468	34.9066
S1	13.9484	76.4381	1007	2017-07-28 03:01:04	-0.734	34.9067
S1	13.9484	76.4381	1007	2017-07-28 04:01:03	-0.7234	34.9064
S1	13.9484	76.4381	1007	2017-07-28 05:01:03	-0.71	34.9065
S1	13.9484	76.4381	1007	2017-07-28 06:01:04	-0.6639	34.9063
S1	13.9484	76.4381	1007	2017-07-28 07:01:03	-0.6433	34.9069
S1	13.9484	76.4381	1007	2017-07-28 08:01:02	-0.6438	34.9066
S1	13.9484	76.4381	1007	2017-07-28 09:01:02	-0.6664	34.9065
S1	13.9484	76.4381	1007	2017-07-28 10:01:03	-0.7034	34.9066
S1	13.9484	76.4381	1007	2017-07-28 11:01:03	-0.7233	34.9061
S1	13.9484	76.4381	1007	2017-07-28 12:01:04	-0.7213	34.9066
S1	13.9484	76.4381	1007	2017-07-28 13:01:03	-0.7313	34.9063
S1	13.9484	76.4381	1007	2017-07-28 14:01:03	-0.7191	34.9064
S1	13.9484	76.4381	1007	2017-07-28 15:01:04	-0.6862	34.9064
S1	13.9484	76.4381	1007	2017-07-28 16:01:03	-0.6684	34.9069
S1	13.9484	76.4381	1007	2017-07-28 17:01:02	-0.6294	34.9067
S1	13.9484	76.4381	1007	2017-07-28 18:01:02	-0.6048	34.9065
S1	13.9484	76.4381	1007	2017-07-28 19:01:03	-0.5932	34.9068
S1	13.9484	76.4381	1007	2017-07-28 20:01:02	-0.5876	34.9065
S1	13.9484	76.4381	1007	2017-07-28 21:01:02	-0.5823	34.9066
S1	13.9484	76.4381	1007	2017-07-28 22:01:03	-0.5752	34.9066
S1	13.9484	76.4381	1007	2017-07-28 23:01:02	-0.5704	34.9065
S1	13.9484	76.4381	1007	2017-07-29 00:01:02	-0.5751	34.9065
S1	13.9484	76.4381	1007	2017-07-29 01:01:03	-0.5992	34.9065
S1	13.9484	76.4381	1007	2017-07-29 02:01:02	-0.6043	34.9068
S1	13.9484	76.4381	1007	2017-07-29 03:01:02	-0.6119	34.9066
S1	13.9484	76.4381	1007	2017-07-29 04:01:03	-0.6032	34.907
S1	13.9484	76.4381	1007	2017-07-29 05:01:02	-0.5942	34.9071
S1	13.9484	76.4381	1007	2017-07-29 06:01:02	-0.5943	34.9074
S1	13.9484	76.4381	1007	2017-07-29 07:01:03	-0.5932	34.9071
S1	13.9484	76.4381	1007	2017-07-29 08:01:02	-0.6093	34.9072
S1	13.9484	76.4381	1007	2017-07-29 09:01:02	-0.6025	34.9071
S1	13.9484	76.4381	1007	2017-07-29 10:01:03	-0.6201	34.9071
S1	13.9484	76.4381	1007	2017-07-29 11:01:02	-0.6543	34.9069
S1	13.9484	76.4381	1007	2017-07-29 12:01:02	-0.6621	34.9071
S1	13.9484	76.4381	1007	2017-07-29 13:01:03	-0.7015	34.9068
S1	13.9484	76.4381	1007	2017-07-29 14:01:02	-0.7212	34.9069
S1	13.9484	76.4381	1007	2017-07-29 15:01:04	-0.732	34.9073
S1	13.9484	76.4381	1007	2017-07-29 16:01:03	-0.7364	34.907
S1	13.9484	76.4381	1007	2017-07-29 17:01:03	-0.7255	34.9071
S1	13.9484	76.4381	1007	2017-07-29 18:01:04	-0.7408	34.9066
S1	13.9484	76.4381	1007	2017-07-29 19:01:03	-0.7433	34.9069
S1	13.9484	76.4381	1007	2017-07-29 20:01:03	-0.7429	34.9067
S1	13.9484	76.4381	1007	2017-07-29 21:01:04	-0.7467	34.9063
S1	13.9484	76.4381	1007	2017-07-29 22:01:03	-0.7612	34.9067
S1	13.9484	76.4381	1007	2017-07-29 23:01:03	-0.7694	34.9065
S1	13.9484	76.4381	1007	2017-07-30 00:01:04	-0.7877	34.9066
S1	13.9484	76.4381	1007	2017-07-30 01:01:03	-0.7916	34.9066
S1	13.9484	76.4381	1007	2017-07-30 02:01:03	-0.7973	34.9069
S1	13.9484	76.4381	1007	2017-07-30 03:01:04	-0.7929	34.9064
S1	13.9484	76.4381	1007	2017-07-30 04:01:03	-0.7797	34.9066
S1	13.9484	76.4381	1007	2017-07-30 05:01:03	-0.7829	34.9065
S1	13.9484	76.4381	1007	2017-07-30 06:01:04	-0.789	34.9065
S1	13.9484	76.4381	1007	2017-07-30 07:01:03	-0.7898	34.9063
S1	13.9484	76.4381	1007	2017-07-30 08:01:03	-0.7986	34.9063
S1	13.9484	76.4381	1007	2017-07-30 09:01:04	-0.8088	34.9068
S1	13.9484	76.4381	1007	2017-07-30 10:01:03	-0.81	34.9064
S1	13.9484	76.4381	1007	2017-07-30 11:01:03	-0.8141	34.9062
S1	13.9484	76.4381	1007	2017-07-30 12:01:04	-0.8209	34.9062
S1	13.9484	76.4381	1007	2017-07-30 13:01:03	-0.8246	34.9064
S1	13.9484	76.4381	1007	2017-07-30 14:01:03	-0.8239	34.906
S1	13.9484	76.4381	1007	2017-07-30 15:01:04	-0.8282	34.9065
S1	13.9484	76.4381	1007	2017-07-30 16:01:03	-0.8219	34.9065
S1	13.9484	76.4381	1007	2017-07-30 17:01:03	-0.8191	34.907
S1	13.9484	76.4381	1007	2017-07-30 18:01:04	-0.8162	34.9063
S1	13.9484	76.4381	1007	2017-07-30 19:01:03	-0.8153	34.9063
S1	13.9484	76.4381	1007	2017-07-30 20:01:03	-0.8169	34.9065
S1	13.9484	76.4381	1007	2017-07-30 21:01:04	-0.8259	34.9063
S1	13.9484	76.4381	1007	2017-07-30 22:01:03	-0.8264	34.9064
S1	13.9484	76.4381	1007	2017-07-30 23:01:03	-0.8263	34.9063
S1	13.9484	76.4381	1007	2017-07-31 00:01:04	-0.8277	34.9063
S1	13.9484	76.4381	1007	2017-07-31 01:01:03	-0.8292	34.9063
S1	13.9484	76.4381	1007	2017-07-31 02:01:03	-0.8267	34.9066
S1	13.9484	76.4381	1007	2017-07-31 03:01:04	-0.8277	34.9063
S1	13.9484	76.4381	1007	2017-07-31 04:01:03	-0.8257	34.9062
S1	13.9484	76.4381	1007	2017-07-31 05:01:03	-0.8322	34.9063
S1	13.9484	76.4381	1007	2017-07-31 06:01:04	-0.8319	34.9064
S1	13.9484	76.4381	1007	2017-07-31 07:01:03	-0.8313	34.9062
S1	13.9484	76.4381	1007	2017-07-31 08:01:03	-0.8321	34.9063
S1	13.9484	76.4381	1007	2017-07-31 09:01:04	-0.8326	34.9062
S1	13.9484	76.4381	1007	2017-07-31 10:01:03	-0.8273	34.9063
S1	13.9484	76.4381	1007	2017-07-31 11:01:03	-0.8349	34.9065
S1	13.9484	76.4381	1007	2017-07-31 12:01:04	-0.8382	34.9063
S1	13.9484	76.4381	1007	2017-07-31 13:01:03	-0.8395	34.9064
S1	13.9484	76.4381	1007	2017-07-31 14:01:03	-0.8391	34.9067
S1	13.9484	76.4381	1007	2017-07-31 15:01:04	-0.8321	34.9067
S1	13.9484	76.4381	1007	2017-07-31 16:01:03	-0.8371	34.9068
S1	13.9484	76.4381	1007	2017-07-31 17:01:03	-0.8328	34.9066
S1	13.9484	76.4381	1007	2017-07-31 18:01:04	-0.8367	34.9066
S1	13.9484	76.4381	1007	2017-07-31 19:01:03	-0.8337	34.9063
S1	13.9484	76.4381	1007	2017-07-31 20:01:03	-0.8254	34.9066
S1	13.9484	76.4381	1007	2017-07-31 21:01:04	-0.8297	34.9067
S1	13.9484	76.4381	1007	2017-07-31 22:01:03	-0.8341	34.9065
S1	13.9484	76.4381	1007	2017-07-31 23:01:03	-0.8279	34.9065
S1	13.9484	76.4381	1007	2017-08-01 00:01:04	-0.8286	34.9067
S1	13.9484	76.4381	1007	2017-08-01 01:01:03	-0.8343	34.9067
S1	13.9484	76.4381	1007	2017-08-01 02:01:03	-0.8271	34.9064
S1	13.9484	76.4381	1007	2017-08-01 03:01:04	-0.8374	34.9068
S1	13.9484	76.4381	1007	2017-08-01 04:01:03	-0.8316	34.9068
S1	13.9484	76.4381	1007	2017-08-01 05:01:03	-0.8391	34.9069
S1	13.9484	76.4381	1007	2017-08-01 06:01:04	-0.8355	34.9067
S1	13.9484	76.4381	1007	2017-08-01 07:01:03	-0.8349	34.9066
S1	13.9484	76.4381	1007	2017-08-01 08:01:03	-0.8322	34.9066
S1	13.9484	76.4381	1007	2017-08-01 09:01:04	-0.8359	34.9068
S1	13.9484	76.4381	1007	2017-08-01 10:01:03	-0.8386	34.9063
S1	13.9484	76.4381	1007	2017-08-01 11:01:03	-0.839	34.9067
S1	13.9484	76.4381	1007	2017-08-01 12:01:04	-0.8374	34.9071
S1	13.9484	76.4381	1007	2017-08-01 13:01:03	-0.8421	34.9066
S1	13.9484	76.4381	1007	2017-08-01 14:01:03	-0.843	34.9063
S1	13.9484	76.4381	1007	2017-08-01 15:01:04	-0.8419	34.9066
S1	13.9484	76.4381	1007	2017-08-01 16:01:03	-0.8427	34.9064
S1	13.9484	76.4381	1007	2017-08-01 17:01:03	-0.8424	34.9068
S1	13.9484	76.4381	1007	2017-08-01 18:01:04	-0.8424	34.9068
S1	13.9484	76.4381	1007	2017-08-01 19:01:03	-0.8416	34.9065
S1	13.9484	76.4381	1007	2017-08-01 20:01:03	-0.8425	34.9068
S1	13.9484	76.4381	1007	2017-08-01 21:01:04	-0.8418	34.9062
S1	13.9484	76.4381	1007	2017-08-01 22:01:03	-0.8403	34.9065
S1	13.9484	76.4381	1007	2017-08-01 23:01:03	-0.8406	34.9065
S1	13.9484	76.4381	1007	2017-08-02 00:01:04	-0.8419	34.9067
S1	13.9484	76.4381	1007	2017-08-02 01:01:03	-0.8411	34.9066
S1	13.9484	76.4381	1007	2017-08-02 02:01:03	-0.8403	34.9066
S1	13.9484	76.4381	1007	2017-08-02 03:01:04	-0.8424	34.9066
S1	13.9484	76.4381	1007	2017-08-02 04:01:03	-0.8421	34.9066
S1	13.9484	76.4381	1007	2017-08-02 05:01:03	-0.8418	34.9063
S1	13.9484	76.4381	1007	2017-08-02 06:01:04	-0.8407	34.9068
S1	13.9484	76.4381	1007	2017-08-02 07:01:03	-0.8261	34.9066
S1	13.9484	76.4381	1007	2017-08-02 08:01:03	-0.8388	34.9065
S1	13.9484	76.4381	1007	2017-08-02 09:01:04	-0.8378	34.9065
S1	13.9484	76.4381	1007	2017-08-02 10:01:03	-0.8368	34.9067
S1	13.9484	76.4381	1007	2017-08-02 11:01:03	-0.8407	34.9065
S1	13.9484	76.4381	1007	2017-08-02 12:01:04	-0.8408	34.9067
S1	13.9484	76.4381	1007	2017-08-02 13:01:03	-0.8419	34.9067
S1	13.9484	76.4381	1007	2017-08-02 14:01:03	-0.8421	34.9069
S1	13.9484	76.4381	1007	2017-08-02 15:01:04	-0.8418	34.9064
S1	13.9484	76.4381	1007	2017-08-02 16:01:03	-0.8422	34.9062
S1	13.9484	76.4381	1007	2017-08-02 17:01:03	-0.8416	34.9063
S1	13.9484	76.4381	1007	2017-08-02 18:01:04	-0.8417	34.907
S1	13.9484	76.4381	1007	2017-08-02 19:01:03	-0.8414	34.9069
S1	13.9484	76.4381	1007	2017-08-02 20:01:03	-0.8415	34.9067
S1	13.9484	76.4381	1007	2017-08-02 21:01:04	-0.8413	34.9065
S1	13.9484	76.4381	1007	2017-08-02 22:01:03	-0.8407	34.9064
S1	13.9484	76.4381	1007	2017-08-02 23:01:03	-0.8369	34.9066
S1	13.9484	76.4381	1007	2017-08-03 00:01:04	-0.8398	34.9067
S1	13.9484	76.4381	1007	2017-08-03 01:01:03	-0.84	34.9067
S1	13.9484	76.4381	1007	2017-08-03 02:01:03	-0.8397	34.9067
S1	13.9484	76.4381	1007	2017-08-03 03:01:04	-0.8408	34.9065
S1	13.9484	76.4381	1007	2017-08-03 04:01:03	-0.8417	34.9065
S1	13.9484	76.4381	1007	2017-08-03 05:01:03	-0.8391	34.9067
S1	13.9484	76.4381	1007	2017-08-03 06:01:04	-0.8376	34.9066
S1	13.9484	76.4381	1007	2017-08-03 07:01:03	-0.8387	34.9067
S1	13.9484	76.4381	1007	2017-08-03 08:01:03	-0.84	34.9066
S1	13.9484	76.4381	1007	2017-08-03 09:01:04	-0.8417	34.9064
S1	13.9484	76.4381	1007	2017-08-03 10:01:03	-0.8417	34.9065
S1	13.9484	76.4381	1007	2017-08-03 11:01:03	-0.8413	34.9066
S1	13.9484	76.4381	1007	2017-08-03 12:01:04	-0.8417	34.9066
S1	13.9484	76.4381	1007	2017-08-03 13:01:03	-0.8407	34.9067
S1	13.9484	76.4381	1007	2017-08-03 14:01:03	-0.8407	34.9065
S1	13.9484	76.4381	1007	2017-08-03 15:01:04	-0.8402	34.9067
S1	13.9484	76.4381	1007	2017-08-03 16:01:03	-0.8412	34.9064
S1	13.9484	76.4381	1007	2017-08-03 17:01:03	-0.8398	34.9063
S1	13.9484	76.4381	1007	2017-08-03 18:01:04	-0.8408	34.9073
S1	13.9484	76.4381	1007	2017-08-03 19:01:03	-0.8394	34.9064
S1	13.9484	76.4381	1007	2017-08-03 20:01:03	-0.8408	34.9065
S1	13.9484	76.4381	1007	2017-08-03 21:01:04	-0.8407	34.9065
S1	13.9484	76.4381	1007	2017-08-03 22:01:03	-0.8402	34.9066
S1	13.9484	76.4381	1007	2017-08-03 23:01:03	-0.8398	34.9068
S1	13.9484	76.4381	1007	2017-08-04 00:01:04	-0.838	34.9065
S1	13.9484	76.4381	1007	2017-08-04 01:01:03	-0.8383	34.9067
S1	13.9484	76.4381	1007	2017-08-04 02:01:03	-0.8387	34.9067
S1	13.9484	76.4381	1007	2017-08-04 03:01:04	-0.838	34.9067
S1	13.9484	76.4381	1007	2017-08-04 04:01:03	-0.8384	34.9066
S1	13.9484	76.4381	1007	2017-08-04 05:01:03	-0.8384	34.9065
S1	13.9484	76.4381	1007	2017-08-04 06:01:04	-0.8394	34.9065
S1	13.9484	76.4381	1007	2017-08-04 07:01:03	-0.8393	34.9068
S1	13.9484	76.4381	1007	2017-08-04 08:01:03	-0.8378	34.9067
S1	13.9484	76.4381	1007	2017-08-04 09:01:04	-0.8387	34.9069
S1	13.9484	76.4381	1007	2017-08-04 10:01:03	-0.8386	34.9064
S1	13.9484	76.4381	1007	2017-08-04 11:01:03	-0.8383	34.9068
S1	13.9484	76.4381	1007	2017-08-04 12:01:04	-0.8215	34.9071
S1	13.9484	76.4381	1007	2017-08-04 13:01:03	-0.8285	34.9065
S1	13.9484	76.4381	1007	2017-08-04 14:01:03	-0.822	34.9065
S1	13.9484	76.4381	1007	2017-08-04 15:01:04	-0.8296	34.9067
S1	13.9484	76.4381	1007	2017-08-04 16:01:03	-0.828	34.9069
S1	13.9484	76.4381	1007	2017-08-04 17:01:03	-0.824	34.9067
S1	13.9484	76.4381	1007	2017-08-04 18:01:04	-0.8244	34.9065
S1	13.9484	76.4381	1007	2017-08-04 19:01:03	-0.8285	34.9068
S1	13.9484	76.4381	1007	2017-08-04 20:01:03	-0.8312	34.9064
S1	13.9484	76.4381	1007	2017-08-04 21:01:04	-0.8279	34.9066
S1	13.9484	76.4381	1007	2017-08-04 22:01:03	-0.8257	34.9067
S1	13.9484	76.4381	1007	2017-08-04 23:01:03	-0.8237	34.9067
S1	13.9484	76.4381	1007	2017-08-05 00:01:04	-0.8218	34.9063
S1	13.9484	76.4381	1007	2017-08-05 01:01:03	-0.8239	34.9067
S1	13.9484	76.4381	1007	2017-08-05 02:01:03	-0.8248	34.9066
S1	13.9484	76.4381	1007	2017-08-05 03:01:04	-0.8259	34.9066
S1	13.9484	76.4381	1007	2017-08-05 04:01:03	-0.8232	34.9067
S1	13.9484	76.4381	1007	2017-08-05 05:01:03	-0.8237	34.9065
S1	13.9484	76.4381	1007	2017-08-05 06:01:04	-0.8281	34.9066
S1	13.9484	76.4381	1007	2017-08-05 07:01:03	-0.8327	34.9064
S1	13.9484	76.4381	1007	2017-08-05 08:01:03	-0.8335	34.9067
S1	13.9484	76.4381	1007	2017-08-05 09:01:04	-0.8334	34.9066
S1	13.9484	76.4381	1007	2017-08-05 10:01:03	-0.8409	34.9065
S1	13.9484	76.4381	1007	2017-08-05 11:01:03	-0.8417	34.9067
S1	13.9484	76.4381	1007	2017-08-05 12:01:04	-0.84	34.9062
S1	13.9484	76.4381	1007	2017-08-05 13:01:03	-0.8424	34.9066
S1	13.9484	76.4381	1007	2017-08-05 14:01:03	-0.8424	34.9067
S1	13.9484	76.4381	1007	2017-08-05 15:01:04	-0.8426	34.9067
S1	13.9484	76.4381	1007	2017-08-05 16:01:03	-0.8422	34.9065
S1	13.9484	76.4381	1007	2017-08-05 17:01:03	-0.8423	34.9067
S1	13.9484	76.4381	1007	2017-08-05 18:01:04	-0.8415	34.9066
S1	13.9484	76.4381	1007	2017-08-05 19:01:03	-0.8418	34.9064
S1	13.9484	76.4381	1007	2017-08-05 20:01:03	-0.8411	34.9066
S1	13.9484	76.4381	1007	2017-08-05 21:01:04	-0.8411	34.9068
S1	13.9484	76.4381	1007	2017-08-05 22:01:03	-0.8411	34.9071
S1	13.9484	76.4381	1007	2017-08-05 23:01:03	-0.8408	34.9067
S1	13.9484	76.4381	1007	2017-08-06 00:01:04	-0.8118	34.9068
S1	13.9484	76.4381	1007	2017-08-06 01:01:03	NaN	34.907
S1	13.9484	76.4381	1007	2017-08-06 02:01:03	NaN	34.9068
S1	13.9484	76.4381	1007	2017-08-06 03:01:04	-0.8119	34.9068
S1	13.9484	76.4381	1007	2017-08-06 04:01:03	-0.8334	34.9071
S1	13.9484	76.4381	1007	2017-08-06 05:01:03	-0.8407	34.9069
S1	13.9484	76.4381	1007	2017-08-06 06:01:04	-0.8413	34.9067
S1	13.9484	76.4381	1007	2017-08-06 07:01:03	-0.8414	34.9066
S1	13.9484	76.4381	1007	2017-08-06 08:01:03	-0.8415	34.9067
S1	13.9484	76.4381	1007	2017-08-06 09:01:04	-0.8415	34.9067
S1	13.9484	76.4381	1007	2017-08-06 10:01:03	-0.8413	34.9065
S1	13.9484	76.4381	1007	2017-08-06 11:01:03	-0.841	34.9064
S1	13.9484	76.4381	1007	2017-08-06 12:01:04	-0.8411	34.9063
S1	13.9484	76.4381	1007	2017-08-06 13:01:03	-0.8408	34.9062
S1	13.9484	76.4381	1007	2017-08-06 14:01:03	-0.8412	34.9063
S1	13.9484	76.4381	1007	2017-08-06 15:01:04	-0.8413	34.9068
S1	13.9484	76.4381	1007	2017-08-06 16:01:03	-0.8379	34.9069
S1	13.9484	76.4381	1007	2017-08-06 17:01:03	-0.7884	34.9068
S1	13.9484	76.4381	1007	2017-08-06 18:01:04	-0.7727	34.907
S1	13.9484	76.4381	1007	2017-08-06 19:01:03	-0.7528	34.9067
S1	13.9484	76.4381	1007	2017-08-06 20:01:03	-0.7534	34.9068
S1	13.9484	76.4381	1007	2017-08-06 21:01:04	-0.7459	34.9069
S1	13.9484	76.4381	1007	2017-08-06 22:01:03	-0.7375	34.9067
S1	13.9484	76.4381	1007	2017-08-06 23:01:03	-0.7619	34.907
S1	13.9484	76.4381	1007	2017-08-07 00:01:04	-0.7728	34.9068
S1	13.9484	76.4381	1007	2017-08-07 01:01:03	-0.7772	34.9069
S1	13.9484	76.4381	1007	2017-08-07 02:01:03	-0.7764	34.9065
S1	13.9484	76.4381	1007	2017-08-07 03:01:04	-0.7752	34.9069
S1	13.9484	76.4381	1007	2017-08-07 04:01:03	-0.7463	34.9063
S1	13.9484	76.4381	1007	2017-08-07 05:01:03	-0.7341	34.9066
S1	13.9484	76.4381	1007	2017-08-07 06:01:04	-0.7338	34.9068
S1	13.9484	76.4381	1007	2017-08-07 07:01:03	-0.7407	34.9067
S1	13.9484	76.4381	1007	2017-08-07 08:01:03	-0.7351	34.9069
S1	13.9484	76.4381	1007	2017-08-07 09:01:04	-0.7296	34.9064
S1	13.9484	76.4381	1007	2017-08-07 10:01:03	-0.6928	34.9064
S1	13.9484	76.4381	1007	2017-08-07 11:01:02	-0.7104	34.9067
S1	13.9484	76.4381	1007	2017-08-07 12:01:04	-0.7081	34.9066
S1	13.9484	76.4381	1007	2017-08-07 13:01:03	-0.6992	34.9066
S1	13.9484	76.4381	1007	2017-08-07 14:01:02	-0.6783	34.9067
S1	13.9484	76.4381	1007	2017-08-07 15:01:02	-0.7706	34.9073
S1	13.9484	76.4381	1007	2017-08-07 16:01:03	-0.7844	34.907
S1	13.9484	76.4381	1007	2017-08-07 17:01:03	-0.8011	34.907
S1	13.9484	76.4381	1007	2017-08-07 18:01:04	-0.8104	34.9067
S1	13.9484	76.4381	1007	2017-08-07 19:01:03	-0.8142	34.9069
S1	13.9484	76.4381	1007	2017-08-07 20:01:03	-0.8088	34.9076
S1	13.9484	76.4381	1007	2017-08-07 21:01:04	-0.8055	34.9071
S1	13.9484	76.4381	1007	2017-08-07 22:01:03	-0.8051	34.907
S1	13.9484	76.4381	1007	2017-08-07 23:01:03	-0.8101	34.9073
S1	13.9484	76.4381	1007	2017-08-08 00:01:04	-0.8148	34.9074
S1	13.9484	76.4381	1007	2017-08-08 01:01:03	-0.8156	34.9066
S1	13.9484	76.4381	1007	2017-08-08 02:01:03	-0.8039	34.9065
S1	13.9484	76.4381	1007	2017-08-08 03:01:04	-0.7975	34.9068
S1	13.9484	76.4381	1007	2017-08-08 04:01:03	-0.7957	34.9063
S1	13.9484	76.4381	1007	2017-08-08 05:01:03	-0.7995	34.9065
S1	13.9484	76.4381	1007	2017-08-08 06:01:04	-0.8149	34.9066
S1	13.9484	76.4381	1007	2017-08-08 07:01:03	-0.8156	34.9067
S1	13.9484	76.4381	1007	2017-08-08 08:01:03	-0.8121	34.9063
S1	13.9484	76.4381	1007	2017-08-08 09:01:04	-0.8167	34.9065
S1	13.9484	76.4381	1007	2017-08-08 10:01:03	-0.8123	34.9062
S1	13.9484	76.4381	1007	2017-08-08 11:01:03	-0.8021	34.9068
S1	13.9484	76.4381	1007	2017-08-08 12:01:04	-0.7851	34.9064
S1	13.9484	76.4381	1007	2017-08-08 13:01:03	-0.7688	34.9065
S1	13.9484	76.4381	1007	2017-08-08 14:01:03	-0.7699	34.9066
S1	13.9484	76.4381	1007	2017-08-08 15:01:04	-0.7665	34.9064
S1	13.9484	76.4381	1007	2017-08-08 16:01:03	-0.7718	34.9065
S1	13.9484	76.4381	1007	2017-08-08 17:01:03	-0.7711	34.9066
S1	13.9484	76.4381	1007	2017-08-08 18:01:04	-0.7675	34.9064
S1	13.9484	76.4381	1007	2017-08-08 19:01:03	-0.7704	34.9062
S1	13.9484	76.4381	1007	2017-08-08 20:01:03	-0.7736	34.9067
S1	13.9484	76.4381	1007	2017-08-08 21:01:04	-0.7746	34.9062
S1	13.9484	76.4381	1007	2017-08-08 22:01:03	-0.7722	34.9065
S1	13.9484	76.4381	1007	2017-08-08 23:01:03	-0.7735	34.9063
S1	13.9484	76.4381	1007	2017-08-09 00:01:04	-0.7744	34.9063
S1	13.9484	76.4381	1007	2017-08-09 01:01:03	-0.7719	34.9062
S1	13.9484	76.4381	1007	2017-08-09 02:01:03	-0.7748	34.9063
S1	13.9484	76.4381	1007	2017-08-09 03:01:04	-0.7799	34.9062